TimeAST,TemperatureF,Dew PointF,Humidity,Sea Level PressureIn,VisibilityMPH,Wind Direction,Wind SpeedMPH,Gust SpeedMPH,PrecipitationIn,Events,Conditions,WindDirDegrees,DateUTC
12:00 AM,78.8,69.8,74,30.04,6.2,ESE,6.9,-,N/A,,Scattered Clouds,120,2013-12-13 04:00:00
1:00 AM,78.8,64.4,61,30.01,6.2,ESE,11.5,-,N/A,,Partly Cloudy,120,2013-12-13 05:00:00
2:00 AM,79,66,57,30.01,22,East,10.4,,,,Scattered Clouds,100,2013-12-13 06:00:00
2:00 AM,78.8,66.2,65,30.01,6.2,East,10.4,-,N/A,,Partly Cloudy,100,2013-12-13 06:00:00
3:00 AM,78.8,68.0,69,29.98,6.2,East,8.1,-,N/A,,Partly Cloudy,90,2013-12-13 07:00:00
4:00 AM,78.8,68.0,69,29.98,6.2,East,10.4,-,N/A,,Partly Cloudy,90,2013-12-13 08:00:00
5:00 AM,79,69,64,30.00,22,East,12.7,,,,Partly Cloudy,100,2013-12-13 09:00:00
5:00 AM,78.8,69.8,74,29.98,6.2,East,12.7,-,N/A,,Scattered Clouds,100,2013-12-13 09:00:00
6:00 AM,78.8,69.8,74,30.01,6.2,East,9.2,-,N/A,,Scattered Clouds,80,2013-12-13 10:00:00
7:00 AM,78.8,68.0,69,30.01,6.2,East,13.8,-,N/A,,Scattered Clouds,100,2013-12-13 11:00:00
8:00 AM,81,68,57,30.05,28,East,11.5,,,,Scattered Clouds,90,2013-12-13 12:00:00
8:00 AM,80.6,68.0,65,30.04,6.2,East,11.5,-,N/A,,Partly Cloudy,90,2013-12-13 12:00:00
9:00 AM,82.4,68.0,62,30.06,6.2,East,12.7,-,N/A,,Scattered Clouds,80,2013-12-13 13:00:00
10:00 AM,82.4,69.8,66,30.06,6.2,East,11.5,-,N/A,,Scattered Clouds,90,2013-12-13 14:00:00
11:00 AM,83,67,50,30.07,28,East,12.7,,,,Partly Cloudy,90,2013-12-13 15:00:00
11:00 AM,84.2,68.0,58,10.18,6.2,East,12.7,-,N/A,,Scattered Clouds,90,2013-12-13 15:00:00
12:00 PM,84.2,66.2,55,30.04,6.2,East,12.7,-,N/A,,Partly Cloudy,80,2013-12-13 16:00:00
1:00 PM,84.2,66.2,55,30.01,6.2,East,12.7,-,N/A,,Partly Cloudy,90,2013-12-13 17:00:00
2:00 PM,84,68,50,30.00,28,East,11.5,,,,,80,2013-12-13 18:00:00
2:00 PM,84.2,68.0,58,29.98,6.2,East,11.5,-,N/A,,Partly Cloudy,80,2013-12-13 18:00:00
3:00 PM,82.4,68.0,62,29.98,6.2,East,10.4,-,N/A,,Partly Cloudy,100,2013-12-13 19:00:00
4:00 PM,82.4,68.0,62,29.98,6.2,East,13.8,-,N/A,,Scattered Clouds,80,2013-12-13 20:00:00
5:00 PM,81,69,58,30.00,28,East,12.7,,,,Scattered Clouds,80,2013-12-13 21:00:00
5:00 PM,80.6,69.8,70,30.01,6.2,East,12.7,-,N/A,,Partly Cloudy,80,2013-12-13 21:00:00
6:00 PM,80.6,69.8,70,30.01,6.2,East,12.7,25.3,N/A,,Partly Cloudy,80,2013-12-13 22:00:00
7:00 PM,78.8,66.2,65,30.01,6.2,ENE,17.3,-,N/A,,Mostly Cloudy,70,2013-12-13 23:00:00
8:00 PM,80,70,63,30.05,22,East,15.0,,,,,80,2013-12-14 00:00:00
8:00 PM,80.6,69.8,70,30.04,6.2,East,15.0,27.6,N/A,,Partly Cloudy,80,2013-12-14 00:00:00
9:00 PM,80.6,69.8,70,30.04,6.2,East,13.8,-,N/A,,Partly Cloudy,80,2013-12-14 01:00:00
10:00 PM,80.6,69.8,70,30.06,6.2,East,15.0,-,N/A,,Scattered Clouds,80,2013-12-14 02:00:00
10:16 PM,80.6,71.6,74,30.06,1.9,ENE,15.0,-,N/A,Rain,Heavy Rain Showers,70,2013-12-14 02:16:00
11:00 PM,79,71,70,30.06,19,East,16.1,,,Rain,Light Rain Showers,80,2013-12-14 03:00:00
11:00 PM,78.8,71.6,78,30.06,6.2,East,16.1,-,N/A,,Scattered Clouds,80,2013-12-14 03:00:00